Time,TemperatureF,DewpointF,PressureIn,WindDirection,WindDirectionDegrees,WindSpeedMPH,WindSpeedGustMPH,Humidity,HourlyPrecipIn,Conditions,Clouds,dailyrainin,SoftwareType,DateUTC
2013-05-04 00:03:00,64.5,59.0,29.73,SSW,202,0.0,-999.0,82,-99.99,,,0.00,weatherlink.com 1.10,2013-05-04 07:03:00,
2013-05-04 00:18:00,64.1,59.0,29.73,SSW,196,0.0,-999.0,83,-99.99,,,0.00,weatherlink.com 1.10,2013-05-04 07:18:00,
2013-05-04 00:33:00,63.6,59.0,29.73,SSW,196,0.0,-999.0,84,-99.99,,,0.00,weatherlink.com 1.10,2013-05-04 07:33:00,
2013-05-04 00:48:00,63.2,59.0,29.73,SE,127,1.0,-999.0,85,-99.99,,,0.00,weatherlink.com 1.10,2013-05-04 07:48:00,
2013-05-04 01:03:00,63.0,59.0,29.73,SE,127,0.0,-999.0,85,-99.99,,,0.00,weatherlink.com 1.10,2013-05-04 08:03:00,
2013-05-04 01:18:00,62.5,58.0,29.73,South,184,0.0,-999.0,86,-99.99,,,0.00,weatherlink.com 1.10,2013-05-04 08:18:00,
2013-05-04 01:33:00,62.2,58.0,29.72,South,184,0.0,-999.0,86,-99.99,,,0.00,weatherlink.com 1.10,2013-05-04 08:33:00,
2013-05-04 01:48:00,62.1,58.0,29.71,SSW,195,0.0,-999.0,87,-99.99,,,0.00,weatherlink.com 1.10,2013-05-04 08:48:00,
2013-05-04 02:03:00,61.9,58.0,29.71,SSW,195,0.0,-999.0,87,-99.99,,,0.00,weatherlink.com 1.10,2013-05-04 09:03:00,
2013-05-04 02:18:00,61.8,58.0,29.71,SSW,195,0.0,-999.0,88,-99.99,,,0.00,weatherlink.com 1.10,2013-05-04 09:18:00,
2013-05-04 02:33:00,61.7,59.0,29.70,SSW,195,0.0,-999.0,89,-99.99,,,0.00,weatherlink.com 1.10,2013-05-04 09:33:00,
2013-05-04 02:48:00,61.7,59.0,29.71,SW,218,4.0,-999.0,89,-99.99,,,0.00,weatherlink.com 1.10,2013-05-04 09:48:00,
2013-05-04 03:03:00,61.4,59.0,29.70,SSW,194,1.0,-999.0,90,-99.99,,,0.00,weatherlink.com 1.10,2013-05-04 10:03:00,
2013-05-04 03:18:00,61.2,58.0,29.70,SSW,194,0.0,-999.0,90,-99.99,,,0.00,weatherlink.com 1.10,2013-05-04 10:18:00,
2013-05-04 03:33:00,60.9,58.0,29.70,SSW,194,1.0,-999.0,90,-99.99,,,0.00,weatherlink.com 1.10,2013-05-04 10:33:00,
2013-05-04 03:48:00,60.8,58.0,29.70,SW,228,0.0,-999.0,90,-99.99,,,0.00,weatherlink.com 1.10,2013-05-04 10:48:00,
2013-05-04 04:04:00,60.9,58.0,29.70,SSW,207,0.0,-999.0,90,-99.99,,,0.00,weatherlink.com 1.10,2013-05-04 11:04:00,
2013-05-04 04:19:00,60.8,58.0,29.70,SSW,212,0.0,-999.0,90,-99.99,,,0.00,weatherlink.com 1.10,2013-05-04 11:19:00,
2013-05-04 04:34:00,60.5,58.0,29.70,SW,216,0.0,-999.0,90,-99.99,,,0.00,weatherlink.com 1.10,2013-05-04 11:34:00,
2013-05-04 04:49:00,60.2,57.0,29.70,SW,216,0.0,-999.0,90,-99.99,,,0.00,weatherlink.com 1.10,2013-05-04 11:49:00,
2013-05-04 05:34:00,59.5,57.0,29.70,SSW,206,0.0,-999.0,90,-99.99,,,0.00,weatherlink.com 1.10,2013-05-04 12:34:00,
2013-05-04 05:49:00,59.2,56.0,29.70,South,178,3.0,-999.0,90,-99.99,,,0.00,weatherlink.com 1.10,2013-05-04 12:49:00,
2013-05-04 06:04:00,58.9,56.0,29.70,South,180,2.0,-999.0,90,-99.99,,,0.00,weatherlink.com 1.10,2013-05-04 13:04:00,
2013-05-04 06:19:00,58.7,56.0,29.71,South,182,0.0,-999.0,90,-99.99,,,0.00,weatherlink.com 1.10,2013-05-04 13:19:00,
2013-05-04 06:34:00,58.9,56.0,29.72,SSW,194,0.0,-999.0,91,-99.99,,,0.00,weatherlink.com 1.10,2013-05-04 13:34:00,
2013-05-04 06:49:00,59.5,57.0,29.72,SSE,155,2.0,-999.0,90,-99.99,,,0.00,weatherlink.com 1.10,2013-05-04 13:49:00,
2013-05-04 07:04:00,60.0,57.0,29.72,South,181,4.0,-999.0,90,-99.99,,,0.00,weatherlink.com 1.10,2013-05-04 14:04:00,
2013-05-04 07:19:00,60.7,58.0,29.73,SW,217,3.0,-999.0,89,-99.99,,,0.00,weatherlink.com 1.10,2013-05-04 14:19:00,
2013-05-04 07:34:00,61.5,58.0,29.73,South,187,1.0,-999.0,88,-99.99,,,0.00,weatherlink.com 1.10,2013-05-04 14:34:00,
2013-05-04 07:49:00,61.6,57.0,29.73,SE,144,2.0,-999.0,86,-99.99,,,0.00,weatherlink.com 1.10,2013-05-04 14:49:00,
2013-05-04 08:04:00,62.3,58.0,29.73,SW,230,3.0,-999.0,85,-99.99,,,0.00,weatherlink.com 1.10,2013-05-04 15:04:00,
2013-05-04 08:19:00,63.1,58.0,29.73,SW,215,3.0,-999.0,82,-99.99,,,0.00,weatherlink.com 1.10,2013-05-04 15:19:00,
2013-05-04 08:34:00,63.7,57.0,29.73,South,172,7.0,-999.0,80,-99.99,,,0.00,weatherlink.com 1.10,2013-05-04 15:34:00,
2013-05-04 08:49:00,64.2,58.0,29.73,SSW,208,3.0,-999.0,79,-99.99,,,0.00,weatherlink.com 1.10,2013-05-04 15:49:00,
2013-05-04 09:04:00,65.2,57.0,29.73,SSE,156,5.0,-999.0,75,-99.99,,,0.00,weatherlink.com 1.10,2013-05-04 16:04:00,
2013-05-04 09:19:00,66.6,57.0,29.73,SW,217,10.0,-999.0,72,-99.99,,,0.00,weatherlink.com 1.10,2013-05-04 16:19:00,
2013-05-04 09:34:00,66.7,57.0,29.73,SSW,204,6.0,-999.0,72,-99.99,,,0.00,weatherlink.com 1.10,2013-05-04 16:34:00,
2013-05-04 09:49:00,67.5,57.0,29.73,SSW,212,3.0,-999.0,70,-99.99,,,0.00,weatherlink.com 1.10,2013-05-04 16:49:00,
2013-05-04 10:04:00,66.4,58.0,29.74,SSW,211,5.0,-999.0,73,-99.99,,,0.00,weatherlink.com 1.10,2013-05-04 17:04:00,
2013-05-04 10:19:00,67.3,58.0,29.74,WSW,240,13.0,-999.0,71,-99.99,,,0.00,weatherlink.com 1.10,2013-05-04 17:19:00,
2013-05-04 10:34:00,67.2,58.0,29.74,SSW,212,5.0,-999.0,72,-99.99,,,0.00,weatherlink.com 1.10,2013-05-04 17:34:00,
2013-05-04 10:49:00,67.5,58.0,29.75,South,191,6.0,-999.0,71,-99.99,,,0.00,weatherlink.com 1.10,2013-05-04 17:49:00,
2013-05-04 11:04:00,68.4,58.0,29.74,South,185,11.0,-999.0,69,-99.99,,,0.00,weatherlink.com 1.10,2013-05-04 18:04:00,
2013-05-04 11:19:00,67.7,57.0,29.74,West,263,5.0,-999.0,69,-99.99,,,0.00,weatherlink.com 1.10,2013-05-04 18:19:00,
2013-05-04 11:34:00,68.3,57.0,29.73,SW,215,9.0,-999.0,68,-99.99,,,0.00,weatherlink.com 1.10,2013-05-04 18:34:00,
2013-05-04 11:49:00,68.6,58.0,29.74,South,184,7.0,-999.0,68,-99.99,,,0.00,weatherlink.com 1.10,2013-05-04 18:49:00,
2013-05-04 12:04:00,69.2,57.0,29.73,South,188,1.0,-999.0,66,-99.99,,,0.00,weatherlink.com 1.10,2013-05-04 19:04:00,
2013-05-04 12:19:00,69.2,58.0,29.73,SSW,206,16.0,-999.0,67,-99.99,,,0.00,weatherlink.com 1.10,2013-05-04 19:19:00,
2013-05-04 12:34:00,69.2,57.0,29.73,SW,223,9.0,-999.0,65,-99.99,,,0.00,weatherlink.com 1.10,2013-05-04 19:34:00,
2013-05-04 12:49:00,69.4,57.0,29.72,SW,215,12.0,-999.0,65,-99.99,,,0.00,weatherlink.com 1.10,2013-05-04 19:49:00,
2013-05-04 13:04:00,69.0,58.0,29.72,South,190,3.0,-999.0,67,-99.99,,,0.00,weatherlink.com 1.10,2013-05-04 20:04:00,
2013-05-04 13:19:00,69.3,58.0,29.71,SW,216,6.0,-999.0,67,-99.99,,,0.00,weatherlink.com 1.10,2013-05-04 20:19:00,
2013-05-04 13:34:00,69.3,57.0,29.71,South,180,4.0,-999.0,65,-99.99,,,0.00,weatherlink.com 1.10,2013-05-04 20:34:00,
2013-05-04 13:49:00,69.7,58.0,29.71,South,190,9.0,-999.0,66,-99.99,,,0.00,weatherlink.com 1.10,2013-05-04 20:49:00,
2013-05-04 14:04:00,69.5,57.0,29.71,SW,215,9.0,-999.0,64,-99.99,,,0.00,weatherlink.com 1.10,2013-05-04 21:04:00,
2013-05-04 14:19:00,70.4,58.0,29.70,SSW,195,6.0,-999.0,64,-99.99,,,0.00,weatherlink.com 1.10,2013-05-04 21:19:00,
2013-05-04 14:34:00,69.3,57.0,29.70,SW,231,9.0,-999.0,65,-99.99,,,0.00,weatherlink.com 1.10,2013-05-04 21:34:00,
2013-05-04 14:49:00,69.3,57.0,29.70,SW,229,5.0,-999.0,66,-99.99,,,0.00,weatherlink.com 1.10,2013-05-04 21:49:00,
2013-05-04 15:04:00,69.9,58.0,29.70,SSW,199,4.0,-999.0,65,-99.99,,,0.00,weatherlink.com 1.10,2013-05-04 22:04:00,
2013-05-04 15:19:00,69.4,57.0,29.70,SSE,161,4.0,-999.0,66,-99.99,,,0.00,weatherlink.com 1.10,2013-05-04 22:19:00,
2013-05-04 15:34:00,69.9,58.0,29.69,SSE,159,4.0,-999.0,65,-99.99,,,0.00,weatherlink.com 1.10,2013-05-04 22:34:00,
2013-05-04 15:49:00,69.3,57.0,29.69,WSW,245,8.0,-999.0,66,-99.99,,,0.00,weatherlink.com 1.10,2013-05-04 22:49:00,
2013-05-04 16:04:00,68.6,58.0,29.69,SW,236,11.0,-999.0,68,-99.99,,,0.00,weatherlink.com 1.10,2013-05-04 23:04:00,
2013-05-04 16:19:00,68.5,58.0,29.70,SSW,206,5.0,-999.0,70,-99.99,,,0.00,weatherlink.com 1.10,2013-05-04 23:19:00,
2013-05-04 16:34:00,67.2,57.0,29.70,South,178,2.0,-999.0,70,-99.99,,,0.00,weatherlink.com 1.10,2013-05-04 23:34:00,
2013-05-04 16:49:00,66.5,57.0,29.70,SW,235,6.0,-999.0,72,-99.99,,,0.00,weatherlink.com 1.10,2013-05-04 23:49:00,
2013-05-04 17:04:00,65.6,57.0,29.71,West,280,7.0,-999.0,74,-99.99,,,0.00,weatherlink.com 1.10,2013-05-05 00:04:00,
2013-05-04 17:19:00,65.5,57.0,29.71,SSW,199,11.0,-999.0,74,-99.99,,,0.00,weatherlink.com 1.10,2013-05-05 00:19:00,
2013-05-04 17:34:00,65.2,57.0,29.72,WSW,239,3.0,-999.0,75,-99.99,,,0.00,weatherlink.com 1.10,2013-05-05 00:34:00,
2013-05-04 17:49:00,64.5,57.0,29.71,SSW,207,4.0,-999.0,76,-99.99,,,0.00,weatherlink.com 1.10,2013-05-05 00:49:00,
2013-05-04 18:04:00,64.4,57.0,29.71,South,190,2.0,-999.0,76,-99.99,,,0.00,weatherlink.com 1.10,2013-05-05 01:04:00,
2013-05-04 18:19:00,64.3,57.0,29.71,South,178,7.0,-999.0,76,-99.99,,,0.00,weatherlink.com 1.10,2013-05-05 01:19:00,
2013-05-04 18:34:00,63.8,56.0,29.71,SSE,153,5.0,-999.0,76,-99.99,,,0.00,weatherlink.com 1.10,2013-05-05 01:34:00,
2013-05-04 18:49:00,63.5,56.0,29.71,SSE,159,1.0,-999.0,76,-99.99,,,0.00,weatherlink.com 1.10,2013-05-05 01:49:00,
2013-05-04 19:04:00,63.2,56.0,29.72,SSW,208,4.0,-999.0,76,-99.99,,,0.00,weatherlink.com 1.10,2013-05-05 02:04:00,
2013-05-04 19:19:00,63.0,56.0,29.72,South,184,4.0,-999.0,77,-99.99,,,0.00,weatherlink.com 1.10,2013-05-05 02:19:00,
2013-05-04 19:34:00,62.8,57.0,29.72,South,189,0.0,-999.0,81,-99.99,,,0.00,weatherlink.com 1.10,2013-05-05 02:34:00,
2013-05-04 19:49:00,62.5,57.0,29.73,SW,226,4.0,-999.0,81,-99.99,,,0.00,weatherlink.com 1.10,2013-05-05 02:49:00,
2013-05-04 20:04:00,62.1,57.0,29.73,SW,214,4.0,-999.0,82,-99.99,,,0.00,weatherlink.com 1.10,2013-05-05 03:04:00,
2013-05-04 20:19:00,61.9,56.0,29.74,WSW,240,4.0,-999.0,82,-99.99,,,0.00,weatherlink.com 1.10,2013-05-05 03:19:00,
2013-05-04 20:34:00,61.8,56.0,29.75,WSW,239,3.0,-999.0,82,-99.99,,,0.00,weatherlink.com 1.10,2013-05-05 03:34:00,
2013-05-04 20:49:00,61.7,56.0,29.76,SW,216,5.0,-999.0,81,-99.99,,,0.00,weatherlink.com 1.10,2013-05-05 03:49:00,
2013-05-04 21:04:00,61.6,56.0,29.76,SSW,212,2.0,-999.0,82,-99.99,,,0.00,weatherlink.com 1.10,2013-05-05 04:04:00,
2013-05-04 21:19:00,61.5,56.0,29.77,SSW,198,1.0,-999.0,81,-99.99,,,0.00,weatherlink.com 1.10,2013-05-05 04:19:00,
2013-05-04 21:34:00,61.2,55.0,29.77,SSW,200,2.0,-999.0,80,-99.99,,,0.00,weatherlink.com 1.10,2013-05-05 04:34:00,
2013-05-04 21:49:00,61.2,55.0,29.77,SSW,208,2.0,-999.0,80,-99.99,,,0.00,weatherlink.com 1.10,2013-05-05 04:49:00,
2013-05-04 22:04:00,60.9,55.0,29.78,SSW,196,2.0,-999.0,80,-99.99,,,0.00,weatherlink.com 1.10,2013-05-05 05:04:00,
2013-05-04 22:19:00,60.7,55.0,29.79,South,172,1.0,-999.0,80,-99.99,,,0.00,weatherlink.com 1.10,2013-05-05 05:19:00,
2013-05-04 22:34:00,60.5,54.0,29.79,SSW,194,4.0,-999.0,80,-99.99,,,0.00,weatherlink.com 1.10,2013-05-05 05:34:00,
2013-05-04 22:49:00,60.4,55.0,29.79,SSW,194,2.0,-999.0,81,-99.99,,,0.00,weatherlink.com 1.10,2013-05-05 05:49:00,
2013-05-04 23:05:00,60.4,55.0,29.79,SSW,196,1.0,-999.0,81,-99.99,,,0.00,weatherlink.com 1.10,2013-05-05 06:05:00,
2013-05-04 23:20:00,60.3,54.0,29.78,SSW,194,5.0,-999.0,81,-99.99,,,0.00,weatherlink.com 1.10,2013-05-05 06:20:00,
2013-05-04 23:35:00,60.5,54.0,29.78,South,173,1.0,-999.0,80,-99.99,,,0.00,weatherlink.com 1.10,2013-05-05 06:35:00,
2013-05-04 23:50:00,60.5,53.0,29.79,SE,136,4.0,-999.0,76,-99.99,,,0.00,weatherlink.com 1.10,2013-05-05 06:50:00,